Вернуться в каталог

SL-8 DEB

АктивенLEO
NORAD 21249·DEBRIS·🇷🇺 Russia

Запущен Feb 12, 1991 с Plesetsk Cosmodrome

Loading…

Ближайшие Пролёты (ближайшие 24 часа)

TLE

СвежийSource: Space-Track

Эпоха: Sep 14, 2026, 09:50 UTC

1 21249U 91009BG  26257.41028088 -.00000002  00000-0  11471-3 0  9990
2 21249  74.0720  45.0819 0123070  42.0666 347.3737 12.22377679584854

Отслеживайте SL-8 DEB в реальном времени с AllMySat

Download on the App Store